Weather History for KEVV - October, 2013

Change the Weather History Date:

Thursday, October 31, 2013

  Actual Average Record
Temperature  
Mean Temperature 62 °F 53 °F  
Max Temperature 70 °F 64 °F 85 °F (1950)
Min Temperature 54 °F 42 °F 25 °F (1988)
Degree Days  
Heating Degree Days 3 12  
Month to date heating degree days 249 257  
Since 1 July heating degree days 259 303  
Cooling Degree Days 0 0  
Month to date cooling degree days 57 29  
Year to date cooling degree days 1464 1395  
Growing Degree Days 14 (Base 50)    
Moisture  
Dew Point 59 °F    
Average Humidity 81    
Maximum Humidity 93    
Minimum Humidity 68    
Precipitation  
Precipitation 0.96 in 0.11 in 2.05 in (1941)
Month to date precipitation 6.07 3.25  
Year to date precipitation 44.21 37.22  
Snow  
Snow 0.00 in 0.00 in 0.50 in (1993)
Month to date snowfall 0.0 0.2  
Since 1 July snowfall 0.0 0.2  
Since 1 September snowfall 0.0 0.2  
Snow Depth 0.00 in    
Sea Level Pressure  
Sea Level Pressure 29.64 in    
Wind  
Wind Speed 13 mph (SSW)    
Max Wind Speed 28 mph    
Max Gust Speed 38 mph    
Visibility 8 miles    
Events Rain    
T = Trace of Precipitation, MM = Missing Value Source: NWS Daily Summary

Daily Weather History Graph

Daily Weather History Graph

Search for Another Location

Airport or City:

Trip Planner

Search our weather history database for the weather conditions in past years. The results will help you decide how hot, cold, wet, or windy it might be!

Date:

Astronomy

Oct. 31, 2013 Rise Set
Actual Time 7:15 AM CDT 5:51 PM CDT
Civil Twilight 6:47 AM CDT 6:18 PM CDT
Nautical Twilight 6:16 AM CDT 6:50 PM CDT
Astronomical Twilight 5:46 AM CDT 7:20 PM CDT
Moon 4:06 AM CDT (10/31) 4:07 PM CDT (10/31)
Length of Visible Light 11h 31m
Length of Day
10h 36m
Waning Crescent, 10% of the Moon is Illuminated
Oct 31
Waning Crescent
Nov 3
New
Nov 9
First Quarter
Nov 17
Full
Nov 25
Last Quarter

Hourly Weather History & Observations

Time (CDT) Temp. Dew Point Humidity Pressure Visibility Wind Dir Wind Speed Gust Speed Precip Events Conditions
12:54 AM 68.0 °F 57.9 °F 70% 29.94 in 10.0 mi South 10.4 mph - 0.00 in   Mostly Cloudy
1:54 AM 68.0 °F 57.9 °F 70% 29.92 in 10.0 mi South 10.4 mph - N/A   Overcast
2:54 AM 66.9 °F 57.9 °F 73% 29.92 in 10.0 mi South 11.5 mph 18.4 mph 0.00 in Rain Light Rain
3:54 AM 64.0 °F 59.0 °F 84% 29.88 in 10.0 mi South 8.1 mph - 0.02 in Rain Light Rain
4:54 AM 64.0 °F 59.0 °F 84% 29.86 in 10.0 mi South 10.4 mph - 0.00 in Rain Light Rain
5:54 AM 64.0 °F 59.0 °F 84% 29.84 in 6.0 mi South 9.2 mph - 0.02 in Rain Light Rain
6:54 AM 64.0 °F 59.0 °F 84% 29.82 in 10.0 mi South 11.5 mph 23.0 mph 0.01 in Rain Light Rain
7:54 AM 64.0 °F 59.0 °F 84% 29.80 in 6.0 mi South 13.8 mph - 0.01 in Rain Light Rain
8:54 AM 62.1 °F 57.9 °F 86% 29.78 in 6.0 mi South 11.5 mph 18.4 mph 0.11 in Rain Light Rain
9:37 AM 60.8 °F 57.2 °F 88% 29.75 in 2.5 mi South 8.1 mph - 0.07 in Rain Rain
9:54 AM 61.0 °F 57.9 °F 90% 29.73 in 2.5 mi SSE 9.2 mph - 0.13 in Rain Heavy Rain
9:58 AM 60.8 °F 57.2 °F 88% 29.73 in 1.8 mi SSE 9.2 mph - 0.03 in Rain Heavy Rain
10:07 AM 60.8 °F 57.2 °F 88% 29.71 in 1.2 mi SE 8.1 mph - 0.12 in Rain Heavy Rain
10:14 AM 60.8 °F 57.2 °F 88% 29.69 in 2.0 mi SE 11.5 mph 16.1 mph 0.17 in Rain Heavy Rain
10:54 AM 62.1 °F 59.0 °F 90% 29.65 in 10.0 mi South 9.2 mph 25.3 mph 0.24 in   Unknown
11:14 AM 62.6 °F 59.0 °F 88% 29.65 in 10.0 mi South 17.3 mph 24.2 mph 0.00 in Rain Light Rain
11:54 AM 64.0 °F 60.1 °F 87% 29.62 in 7.0 mi South 13.8 mph 24.2 mph 0.01 in Rain Light Rain
12:54 PM 66.0 °F 62.1 °F 87% 29.58 in 4.0 mi South 15.0 mph 20.7 mph 0.13 in Rain Rain
1:28 PM 66.2 °F 62.6 °F 88% 29.55 in 7.0 mi South 17.3 mph 25.3 mph 0.06 in Rain Light Rain
1:54 PM 66.9 °F 64.0 °F 90% 29.53 in 8.0 mi South 15.0 mph 24.2 mph 0.08 in Rain Light Rain
2:39 PM 68.0 °F 64.4 °F 88% 29.52 in 7.0 mi SSW 20.7 mph 27.6 mph 0.02 in Rain Light Rain
2:54 PM 68.0 °F 64.0 °F 87% 29.50 in 5.0 mi SSW 17.3 mph 29.9 mph 0.03 in Rain Light Rain
3:54 PM 69.1 °F 64.0 °F 84% 29.49 in 10.0 mi SSW 15.0 mph - 0.03 in   Overcast
4:54 PM 69.1 °F 64.0 °F 84% 29.45 in 10.0 mi SSW 16.1 mph 23.0 mph N/A   Overcast
5:54 PM 69.1 °F 64.9 °F 87% 29.44 in 10.0 mi SSW 15.0 mph 24.2 mph 0.01 in   Overcast
6:36 PM 69.8 °F 64.4 °F 83% 29.44 in 10.0 mi SSW 16.1 mph 29.9 mph 0.00 in   Overcast
6:54 PM 69.1 °F 64.0 °F 84% 29.43 in 10.0 mi SSW 13.8 mph 25.3 mph 0.00 in   Overcast
7:17 PM 69.8 °F 64.4 °F 83% 29.44 in 10.0 mi SSW 13.8 mph 23.0 mph 0.00 in Rain Light Rain
7:54 PM 68.0 °F 64.0 °F 87% 29.44 in 8.0 mi SSW 13.8 mph 23.0 mph 0.02 in Rain Rain
8:54 PM 63.0 °F 54.0 °F 72% 29.52 in 10.0 mi West 24.2 mph 34.5 mph 0.01 in   Overcast
9:18 PM 59.0 °F 55.4 °F 88% 29.54 in 10.0 mi West 16.1 mph 28.8 mph 0.06 in Rain Light Rain
9:54 PM 59.0 °F 54.0 °F 83% 29.53 in 10.0 mi West 8.1 mph - 0.07 in Rain Light Rain
10:54 PM 57.9 °F 54.0 °F 87% 29.56 in 10.0 mi West 13.8 mph - 0.03 in   Mostly Cloudy
11:14 PM 59.0 °F 55.4 °F 88% 29.58 in 10.0 mi West 16.1 mph 23.0 mph N/A   Mostly Cloudy
11:23 PM 59.0 °F 55.4 °F 88% 29.59 in 10.0 mi West 12.7 mph - 0.00 in Rain Light Rain
11:51 PM 57.2 °F 53.6 °F 88% 29.62 in 10.0 mi West 15.0 mph - 0.00 in   Scattered Clouds
11:54 PM 57.9 °F 53.1 °F 84% 29.62 in 10.0 mi West 13.8 mph 20.7 mph 0.00 in   Scattered Clouds